Home > Weather > Sarajevo > Past weeks

Flag for Bosnia-Herzegovina Weather for the Past 2 Weeks in Sarajevo, Bosnia-Herzegovina

Now
43 °F

Partly cloudy.


Feels Like: 37 °F
Forecast: 27 / 47 °F
Wind: 9 mph from Southeast

Location: Sarajevo / Butmir

Current Time: Feb 11, 2016 at 6:18:59 PM

Latest Report: Feb 11, 2016 at 6:00 PM


Visibility: N/A

Pressure: 29.77 "Hg (27.91 "Hg at 526m altitude)

Humidity: 61%

Dew point: 30 °F

Location of SarajevoLocation

Historic Weather in Sarajevo — Graph

°F

Sarajevo Temperature Yesterday

Maximum temperature yesterday: 54 °F (at 12:00 AM)
Minimum temperature yesterday: 41 °F (at 9:30 PM)
Average temperature yesterday: 48 °F

High & Low Weather Summary for the Past Weeks

 TemperatureHumidityPressure
High64 °F (Feb 1, 2:00 PM)100% (Jan 27, 5:00 PM)30.51 "Hg (Jan 27, 5:00 PM)
Low23 °F (Feb 6, 7:30 AM)45% (Feb 9, 1:00 PM)29.33 "Hg (Feb 10, 9:00 AM)
Average42 °F80%30.14 "Hg
* Reported Jan 27 5:00 PM — Feb 11 5:00 PM, Sarajevo, Weather by CustomWeather, © 2016

Note: Actual official high and low records may vary slightly from our data, if they occured in-between our weather recording intervals... More about our weather records

Advertising

Sarajevo Weather History for the Previous 24 Hours

 ConditionsComfort  
Time TempWeatherWind HumidityBarometerVisibility
5:00 PM
Thu, Feb 11
45 °FPartly sunny.12 mph57%29.77 "HgN/A
4:30 PM46 °FScattered clouds.8 mph57%29.77 "HgN/A
4:00 PM46 °FScattered clouds.1 mph50%29.77 "HgN/A
3:30 PM46 °FSunny.No wind50%29.74 "Hg10 mi
3:00 PM48 °FSunny.1 mph46%29.74 "Hg10 mi
2:30 PM46 °FSunny.1 mph50%29.74 "Hg10 mi
2:00 PM46 °FPassing clouds.2 mph50%29.77 "HgN/A
1:30 PM46 °FPassing clouds.2 mph53%29.77 "HgN/A
1:00 PM45 °FPassing clouds.2 mph57%29.77 "HgN/A
12:30 PM45 °FPassing clouds.2 mph57%29.77 "HgN/A
12:00 PM45 °FPassing clouds.No wind57%29.77 "HgN/A
11:30 AM43 °FPassing clouds.2 mph66%29.80 "HgN/A
11:00 AM41 °FSunny.1 mph70%29.80 "Hg10 mi
10:30 AM41 °FSunny.1 mph76%29.77 "Hg10 mi
10:00 AM39 °FSunny.1 mph87%29.80 "Hg10 mi
9:30 AM36 °FSunny.2 mph93%29.80 "Hg10 mi
9:00 AM36 °FSunny.2 mph93%29.80 "Hg10 mi
8:30 AM34 °FSunny.No wind93%29.80 "Hg10 mi
8:00 AM32 °FSunny.2 mph93%29.80 "Hg10 mi
7:30 AM30 °FSunny.1 mph93%29.77 "Hg10 mi
7:00 AM32 °FSunny.1 mph93%29.77 "Hg10 mi
6:30 AM30 °FClear.2 mph93%29.77 "Hg10 mi
6:00 AM32 °FClear.1 mph87%29.77 "Hg10 mi
5:30 AM32 °FClear.1 mph93%29.77 "Hg10 mi
5:00 AM34 °FClear.1 mph87%29.77 "Hg10 mi
4:00 AM34 °FClear.1 mph87%29.74 "Hg10 mi
3:00 AM37 °FPassing clouds.3 mph81%29.74 "HgN/A
2:00 AM41 °FPassing clouds.6 mph70%29.71 "HgN/A
1:00 AM41 °FPassing clouds.5 mph70%29.68 "HgN/A
12:00 AM43 °FPassing clouds.6 mph66%29.65 "HgN/A
11:00 PM
Wed, Feb 10
45 °FPassing clouds.12 mph53%29.59 "HgN/A
10:00 PM43 °FPassing clouds.1 mph57%29.56 "HgN/A
9:30 PM41 °FPassing clouds.5 mph57%29.56 "HgN/A
9:00 PM45 °FPassing clouds.9 mph49%29.53 "HgN/A
8:30 PM45 °FPassing clouds.8 mph53%29.53 "HgN/A
8:00 PM45 °FPartly cloudy.14 mph57%29.56 "HgN/A
7:30 PM45 °FPassing clouds.5 mph76%29.53 "HgN/A
7:00 PM43 °FPassing clouds.No wind71%29.50 "HgN/A
6:30 PM43 °FPassing clouds.2 mph71%29.50 "HgN/A
6:00 PM45 °FPartly cloudy.3 mph76%29.47 "HgN/A
Weather by CustomWeather, © 2016

See weather overviewHow to use our weather pages